Find Kosmos-2414

NORAD ID: 28521 Int'l Des: 2005-002 Owner: VMFR Country: RU operational
LEOCIRCULARPOLAR

实时位置

正在加载3D地球...

关于 Kosmos-2414

正在加载描述...

即将过境

Passes for default location (London). Set your location on the main map for personalized predictions.

高度历史

Loading altitude history...

两行轨道根数

1 28521U 05002A 26120.01952997 .00000069 00000-0 43901-4 0 9994
2 28521 82.9481 80.0780 0041498 106.0660 254.5079 13.87921088 77137
Epoch: Apr 30, 2026 • Age: 9 hours

当前状态

高度 925.5 km
速度 7.40 km/s
星下点 53.69°N, 90.41°E
发射日期 Jan 20, 2005
运行时间 21.2 years
类型 other

技术详情

分类 Payload
质量 820.00 kg
干质量 820.00 kg
总质量 820.00 kg
长度 5.00 m
直径 2.00 m
跨度 17.00 m
形状 Cyl + Ant
制造商 POL
平台类型 KAUR-1 11F627
阶段状态 In Orbit
所有者/国家 VMFR/RU

Most Searched